SCP
0 0 0 0 0 0 0 0 0 0 0 0 0 0 0 0 0 0 0 0 0 0 0 0 0 0 0 0 0 0 0 -0 -0 0 0 0 0 0 0 0 0 0 0 0 0 0 0
0 0 0 0 0 0 0 0 0 0 0 0 0 0 0 0 0 0 0 0 0 0 0 0 0 0 0 0 0 0 0 0 0 0 0 0 0 0 0 0 0 0 0 0 -0 -0 0
0 0 0 0 0 0 0 0 0 0 0 0 0 0 0 0 0 0 0 0 0 0 0 0 0 0 0 0 0 0 0 0 0 0 -0 0 0 0 0 0 0 0 0 0 -0 0 0
0 0 0 0 0 0 0 0 0 0 0 0 0 0 0 0 0 0 0 0 0 0 0 0 0 0 0 0 0 -0 0 -0 0 0 0 0 0 0 0 0 0 0 0 0 0 0 0
0 0 0 0 0 0 0 0 0 0 0 0 0 0 0 0 0 0 0 0 0 0 0 0 0 0 0 0 0 0 0 0 0 0 0 0 0 0 0 0 0 0 0 0 0 0 0
0 0 0 0 0 0 0 0 0 0 0 0 0 0 0 0 0 0 0 0 0 0 0 0 0 0 0 0 0 -0 0 0 0 0 0 0 0 0 0 0 0 0 0 0 0 0 0
0 0 0 0 0 0 0 0 0 0 0 0 0 0 0 0 0 0 0 0 0 0 0 0 0 0 0 0 0 0 0 0 0 0 0 0 0 0 0 0 0 0 0 0 0 0 0
0 0 0 0 0 0 0 0 0 0 0 0 0 0 0 0 0 0 0 0 0 0 0 0 0 0 0 0 0 0 0 0 0 0 0 0 0 0 0 0 0 0 0 0 0 0 0
0 0 0 0 0 0 0 0 0 0 0 0 0 0 0 0 0 0 0 0 0 0 0 0 0 0 0 0 0 0 0 0 0 0 0 0 0 0 0 0 0 0 0 0 0 0 0
0 0 0 0 0 0 0 0 0 0 0 0 0 0 0 0 0 0 0 0 0 0 0 0 0 0 0 0 0 0 0 0 0 0 0 0 0 0 0 0 0 0 0 0 0 0 0
0 0 0 0 0 0 0 0 0 0 0 0 0 0 0 0 0 0 0 0 0 0 0 0 0 0 0 0 0 0 0 0 0 0 0 0 0 0 0 0 0 0 0 0 0 0 0
0 0 0 0 0 0 0 0 0 0 0 0 0 0 0 0 0 0 0 0 0 0 0 0 0 0 0 0 0 0 0 0 0 0 0 0 0 0 0 0 0 0 0 0 0 0 0
0 0 0 0 0 0 0 0 0 0 0 0 0 0 0 0 0 0 0 0 0 0 0 0 0 0 0 0 0 0 0 0 0 0 0 0 0 0 0 0 0 0 0 0 0 0 0
0 0 0 0 0 0 0 0 0 0 0 0 0 0 0 0 0 0 0 0 0 0 0 0 0 0 0 0 0 0 0 0 0 0 0 0 0 0 0 0 0 0 0 0 0 0 0
0 0 0 0 0 0 0 0 0 0 0 0 0 0 0 0 0 0 0 0 0 0 0 0 0 0 0 0 0 0 0 0 0 0 0 0 0 0 0 0 0 0 0 0 0 0 0
0 0 0 0 0 0 0 0 0 0 0 0 0 0 0 0 0 0 0 0 0 0 0 0 0 0 0 0 0 0 0 0 0 0 0 0 0 0 0 0 0 0 0 0 0 0 0
0 0 0 0 0 0 0 0 0 0 0 0 0 0 0 0 0 0 0 0 0 0 0 0 0 0 0 0 0 0 0 0 0 0 0 0 0 0 0 0 0 0 0 0 0 0 0
0 0 0 0 0 0 0 0 0 0 0 0 0 0 0 0 0 0 0 0 0 0 0 0 0 0 0 0 0 0 0 0 0 0 0 0 0 0 0 0 0 0 0 0 0 0 0
0 0 0 0 0 0 0 0 0 0 0 0 0 0 0 0 0 0 0 0 0 0 0 0 0 0 0 0 0 0 0 0 0 0 0 0 0 0 0 0 0 0 0 0 0 0 0
0 0 0 0 0 0 0 0 0 0 0 0 0 0 0 0 0 0 0 0 0 0 0 0 0 0 0 0 0 0 0 0 0 0 0 0 0 0 0 0 0 0 0 0 0 0 0
0 0 0 0 0 0 0 0 0 0 0 0 0 0 0 0 0 0 0 0 0 0 0 0 0 0 0 0 0 0 0 0 0 0 0 0 0 0 0 0 0 0 0 0 0 0 0
0 0 0 0 0 0 0 0 0 0 0 0 0 0 0 0 0 0 0 0 0 0 0 0 0 0 0 0 0 0 0 0 0 0 0 0 0 0 0 0 0 0 0 0 0 0 0
0 0 0 0 0 0 0 0 0 0 0 0 0 0 0 0 0 0 0 0 0 0 0 0 0 0 0 0 0 0 0 0 0 0 0 0 0 0 0 0 0 0 0 0 0 0 0
0 0 0 0 0 0 0 0 0 0 0 0 0 0 0 0 0 0 0 0 0 0 0 0 0 0 0 0 0 0 0 0 0 0 0 0 0 0 0 0 0 0 0 0 0 0 0
0 0 0 0 0 0 0 0 0 0 0 0 0 0 0 0 0 0 0 0 0 0 0 0 0 0 0 0 0 0 0 0 0 0 0 0 0 0 0 0 0 0 0 0 0 0 0
0 0 0 0 0 0 0 0 0 0 0 0 0 0 0 0 0 0 0 0 0 0 0 0 0 0 0 0 0 0 0 0 0 0 0 0 0 0 0 0 0 0 0 0 0 0 0
0 0 0 -0 0 0 0 0 0 0 0 0 0 0 0 0 0 0 0 0 0 0 0 0 0 0 0 0 0 0 0 0 0 0 0 0 0 0 0 0 0 0 0 0 0 0 -0
-0 -0 0 -0 0 0 -0 0 0 0 0 0 0 -0 0 0 0 0 0 0 0 0 0 0 0 0 0 0 0 0 0 0 0 0 0 0 0 0 0 0 0 0 0 0 0 0 0
-0 -0 0 0 -0 -0 -0 -0 0 0 0 0 0 -0 0 0 0 0 0 0 0 0 0 0 0 0 0 0 0 0 0 0 0 0 0 0 0 0 0 0 0 0 0 0 0 0 0
Wind_Speed_500mb
60 59 56 46 49 56 56 55 54 51 44 46 46 44 42 39 36 38 37 35 34 33 34 35 38 39 37 20 14 23 25 29 21 9 5 11 16 12 7 13 23 9 7 27 31 29 33
62 59 59 64 64 63 54 45 40 52 57 50 50 51 45 38 32 34 35 36 40 40 35 35 37 35 34 14 16 21 28 25 13 8 5 17 16 33 21 10 3 17 32 30 33 48 33
76 77 70 65 70 68 68 67 59 62 44 42 38 41 32 24 26 29 21 26 29 36 39 36 34 37 38 31 19 28 25 20 26 18 23 16 22 18 15 14 18 24 12 17 35 24 18
55 55 53 54 55 65 71 65 59 55 61 59 37 37 39 34 30 30 40 37 35 32 33 34 35 36 28 29 23 23 25 11 17 18 28 24 20 22 11 16 20 11 6 2 11 3 17
43 33 37 41 45 48 47 51 56 52 52 48 55 52 42 44 46 38 44 29 30 30 31 32 28 21 27 17 14 8 11 15 12 8 14 13 15 8 11 4 9 6 7 9 14 11 4
33 31 32 34 37 41 41 40 39 39 43 52 50 52 57 50 44 38 33 28 25 26 28 28 26 12 28 19 9 13 13 11 12 15 13 17 6 2 4 7 8 8 7 6 10 12 6
33 35 32 32 36 40 40 39 38 37 36 37 41 45 46 44 41 40 29 19 15 18 32 33 11 15 11 15 8 17 14 18 21 13 9 8 6 16 20 18 15 13 17 17 12 12 12
38 36 38 35 28 28 32 34 36 36 35 33 33 37 39 37 39 37 28 25 16 9 21 38 52 64 57 46 32 43 22 16 21 13 7 4 12 27 18 20 16 20 26 23 11 7 11
44 42 40 34 38 31 25 28 25 31 31 28 29 33 31 32 33 39 40 34 16 6 13 30 64 55 67 55 52 62 42 36 13 13 12 15 17 11 18 22 23 24 20 9 6 8 8
51 49 46 39 36 36 30 27 28 23 27 25 24 28 28 28 32 41 41 34 15 4 7 13 14 20 33 26 14 35 43 41 14 26 8 15 28 32 30 19 14 9 7 0 6 10 6
59 55 50 44 39 34 39 37 32 32 26 23 22 27 32 33 22 46 43 32 20 11 6 9 12 12 13 27 13 5 34 45 28 11 12 16 6 2 6 9 4 7 3 5 3 5 8
62 57 54 52 45 39 38 38 37 35 34 30 25 32 38 35 35 20 35 44 29 8 18 7 9 12 13 12 7 14 10 10 11 8 9 18 12 8 11 7 8 9 7 11 7 5 8
59 66 59 54 52 45 39 41 45 38 36 37 31 31 36 38 35 37 37 42 7 11 8 11 9 11 7 11 7 8 11 9 10 7 6 8 11 20 15 9 8 7 10 6 7 3 11
64 61 64 61 55 52 47 38 39 44 38 35 35 35 38 37 38 43 53 6 13 15 15 8 9 10 13 13 12 17 12 9 10 6 3 6 10 5 3 6 15 10 15 10 11 6 9
74 68 62 60 60 55 49 43 40 43 43 34 34 39 48 43 47 55 48 11 16 12 10 7 5 7 9 12 11 11 18 16 17 18 15 9 9 3 9 5 8 2 3 8 2 1 5
73 79 70 60 59 58 53 50 44 42 42 38 35 36 47 50 44 65 13 19 11 9 10 8 5 14 20 15 15 17 18 13 12 17 19 7 4 5 3 7 6 9 9 3 4 7 15
78 76 77 69 58 52 55 53 48 47 45 40 36 22 29 48 45 34 11 12 20 27 18 2 3 9 5 10 15 12 19 4 13 7 17 8 7 6 5 6 7 3 2 2 6 8 9
83 77 77 74 67 60 49 51 52 46 47 42 33 8 30 59 18 8 12 17 17 17 18 14 7 7 11 7 12 15 18 2 21 25 16 5 8 5 12 9 7 6 8 11 9 12 8
74 77 75 81 75 66 59 51 54 52 53 51 18 20 38 57 13 14 7 26 11 5 25 7 8 12 12 6 6 5 9 9 15 8 16 12 3 4 13 9 7 7 1 4 5 3 13
79 77 75 70 68 64 61 56 50 47 60 60 23 7 14 26 32 32 21 23 26 24 25 13 5 9 5 8 7 5 4 8 10 10 15 14 7 13 14 8 5 6 9 10 7 4 7
81 82 81 75 73 70 69 66 61 53 63 66 29 13 21 17 21 31 21 11 31 24 28 14 12 17 12 7 9 7 5 4 12 9 8 9 10 6 6 8 8 11 22 26 17 24 12
79 81 80 79 75 72 71 72 70 66 66 69 23 13 20 15 44 33 25 28 31 27 15 13 26 15 17 15 19 17 18 7 10 3 7 3 5 6 8 14 16 24 35 30 31 22 12
83 83 82 79 79 74 76 79 77 76 80 46 66 26 43 25 23 24 35 52 33 11 20 50 19 10 18 18 15 24 19 29 21 17 10 11 9 6 9 8 15 15 21 21 8 14 15
92 91 89 85 85 83 79 77 76 82 93 71 65 36 14 8 24 40 45 43 27 27 20 11 41 14 18 51 43 27 28 18 30 11 20 12 11 6 5 6 8 11 6 7 12 5 8
104 104 102 96 91 88 87 84 80 90 93 97 74 53 22 6 31 23 30 33 37 39 11 17 13 23 56 18 8 8 8 7 6 12 12 11 9 5 5 6 12 6 7 8 8 9 16
110 108 105 101 98 97 94 88 82 90 95 98 86 66 30 9 22 39 29 28 18 21 8 4 9 46 28 6 7 10 8 8 8 5 15 11 8 9 6 7 8 8 4 12 5 9 27
123 121 116 112 105 99 97 93 87 87 96 99 89 107 30 11 22 53 18 30 28 21 8 10 19 8 7 5 5 6 8 15 11 12 10 9 5 20 11 7 13 6 13 15 8 9 38
134 138 124 118 118 110 101 99 89 84 94 100 98 85 83 7 17 28 35 23 33 44 11 25 14 7 8 7 8 8 7 9 5 9 12 16 14 9 9 8 20 12 11 11 6 21 47
120 119 125 133 123 118 110 105 97 92 94 99 74 73 69 46 18 13 18 31 32 59 47 54 16 18 17 7 7 6 4 4 11 7 5 9 13 9 14 11 3 6 6 10 14 38 42
Wind_Direction_500mb
234 236 238 235 242 248 255 259 259 253 256 260 261 261 263 268 277 283 284 289 292 298 305 316 318 323 335 319 304 316 316 324 329 347 19 349 341 348 297 305 317 205 260 313 316 312 304
249 252 249 245 245 248 246 246 259 255 248 252 254 257 256 262 260 285 277 295 293 297 297 307 312 318 320 298 289 285 307 327 327 292 235 314 308 327 287 297 321 314 319 318 312 300 303
260 259 258 257 260 259 255 258 262 258 252 248 241 248 238 250 263 281 263 276 292 281 287 289 299 306 303 284 278 278 288 313 309 274 285 280 323 338 320 316 326 315 312 332 286 287 292
250 254 253 254 254 255 254 254 261 259 256 249 246 234 236 255 272 280 270 275 280 270 274 280 289 298 281 282 271 245 251 322 296 273 254 272 302 308 286 301 335 327 310 262 291 316 278
245 242 245 243 242 245 251 252 252 258 250 243 251 252 257 257 265 270 252 257 262 265 268 272 284 280 273 265 235 162 231 305 263 243 248 296 285 274 293 35 347 278 253 239 304 320 321
254 233 245 243 241 244 247 248 247 245 244 244 242 246 253 249 251 250 241 244 253 261 262 272 251 281 253 233 215 241 238 246 265 277 259 245 240 253 21 112 231 243 247 294 272 299 31
240 242 236 239 244 244 247 245 242 242 244 242 238 236 237 237 234 242 243 231 235 262 235 224 233 223 160 187 177 237 266 243 235 252 196 208 124 228 226 215 231 276 279 269 254 266 339
245 240 240 245 240 251 244 241 230 231 236 240 241 231 231 227 225 228 225 213 236 253 286 254 249 253 251 252 270 266 252 214 196 219 174 318 230 241 236 250 237 249 262 265 256 283 316
244 241 242 244 235 236 245 236 230 228 233 233 231 221 217 218 209 220 227 228 231 283 275 264 250 245 251 245 242 252 225 226 184 215 225 202 237 275 228 253 256 263 250 267 281 312 319
238 238 245 247 243 233 237 231 230 226 225 228 225 218 206 207 203 215 218 198 191 58 298 265 223 243 206 199 230 243 228 215 196 230 199 247 244 232 255 250 223 259 274 133 48 45 290
241 242 238 240 246 233 232 229 221 223 229 227 216 205 210 209 196 197 210 204 202 177 292 227 170 135 172 164 139 158 218 215 214 187 156 233 315 4 267 237 123 178 108 70 74 64 314
244 243 240 237 233 237 235 225 220 219 219 220 218 195 206 203 199 195 192 187 168 79 244 267 143 159 125 167 153 127 138 149 160 188 247 250 256 278 228 281 201 164 87 32 40 113 263
245 242 242 235 233 229 231 231 222 218 217 215 206 202 204 210 195 181 182 159 128 201 283 194 182 168 152 163 152 144 151 155 161 137 262 344 257 261 236 256 213 123 75 352 321 358 234
241 239 240 235 235 232 228 228 225 216 214 215 204 193 205 213 201 199 181 139 206 201 234 9 128 128 181 161 212 178 142 187 255 129 78 181 315 229 297 184 197 190 156 167 232 228 271
239 236 237 235 233 231 227 226 219 218 211 209 201 194 216 205 208 189 163 209 212 187 182 281 144 163 238 216 167 147 180 191 200 170 180 194 250 267 94 107 111 189 136 195 182 136 261
241 234 233 231 227 231 231 225 223 214 209 202 199 192 209 206 209 184 193 221 235 207 326 27 278 201 187 208 180 176 176 200 208 190 170 221 281 255 36 90 24 149 169 60 358 278 262
242 237 230 226 230 228 227 223 218 214 206 197 190 190 210 205 203 179 195 231 244 248 277 310 318 303 276 184 203 200 194 197 152 122 134 135 140 261 57 146 179 10 283 188 190 179 238
239 234 231 227 226 225 225 216 214 211 204 197 184 191 185 191 153 180 190 204 228 253 233 247 287 206 252 296 213 200 199 149 167 148 144 142 142 209 229 276 286 202 230 201 207 241 238
242 235 223 217 218 220 221 220 214 212 196 193 184 178 174 184 183 204 236 229 232 270 225 242 229 195 215 201 325 164 98 9 118 98 153 175 141 17 335 356 29 79 204 183 223 137 214
238 237 232 232 232 223 220 217 218 212 200 196 183 145 188 189 214 208 195 215 221 226 254 256 260 227 250 200 190 164 137 26 64 88 120 101 147 171 226 205 155 250 245 263 197 194 243
231 228 231 230 226 225 223 222 219 209 200 197 205 191 176 186 210 205 188 227 213 225 213 226 220 222 196 205 170 131 41 58 52 120 62 105 193 148 246 239 249 233 255 266 243 245 220
226 225 224 224 225 226 226 222 218 206 205 201 178 176 170 201 201 200 200 214 232 212 221 200 228 223 221 199 196 179 159 173 184 162 117 41 208 95 311 263 250 263 260 251 244 246 240
228 226 224 225 223 224 223 219 216 208 203 203 211 220 189 176 184 192 207 217 218 181 222 230 237 206 216 209 172 114 143 164 163 148 153 142 123 81 270 307 299 279 243 224 219 219 220
232 229 229 229 226 225 220 214 214 208 205 206 205 201 190 197 177 200 210 216 217 205 222 281 219 189 201 127 111 90 78 119 158 175 148 134 123 131 250 351 252 244 228 239 219 232 146
236 233 231 230 227 223 220 220 217 208 204 212 209 209 211 188 201 191 209 203 204 228 230 224 230 208 156 125 83 70 359 25 213 194 167 137 128 172 175 217 278 251 221 186 183 250 160
235 231 227 228 226 223 218 217 214 206 203 211 214 207 215 230 205 189 191 181 185 211 189 182 105 156 173 102 99 151 185 180 220 250 180 127 141 142 170 239 252 243 199 157 122 286 158
236 233 228 223 219 218 212 209 210 205 204 207 215 213 224 210 227 188 173 196 181 172 166 145 156 251 24 80 121 158 212 182 201 187 165 167 193 203 212 241 281 197 151 141 93 249 159
230 228 223 221 219 215 208 206 205 203 200 203 214 214 216 270 232 227 202 182 185 184 163 163 126 180 108 164 147 193 185 212 192 171 169 180 177 190 191 197 257 139 125 175 180 138 160
224 217 216 218 213 210 208 206 207 202 200 201 205 210 220 229 226 244 200 212 211 211 184 172 174 160 156 133 181 164 206 153 171 214 179 196 189 183 186 213 182 200 218 183 174 163 170
Wind_Speed_850mb
60 59 56 46 49 56 56 55 54 51 44 46 46 44 42 39 36 38 37 35 34 33 34 35 38 39 37 20 14 23 25 29 21 9 5 11 16 12 7 13 23 9 7 27 31 29 33
62 59 59 64 64 63 54 45 40 52 57 50 50 51 45 38 32 34 35 36 40 40 35 35 37 35 34 14 16 21 28 25 13 8 5 17 16 33 21 10 3 17 32 30 33 48 33
76 77 70 65 70 68 68 67 59 62 44 42 38 41 32 24 26 29 21 26 29 36 39 36 34 37 38 31 19 28 25 20 26 18 23 16 22 18 15 14 18 24 12 17 35 24 18
55 55 53 54 55 65 71 65 59 55 61 59 37 37 39 34 30 30 40 37 35 32 33 34 35 36 28 29 23 23 25 11 17 18 28 24 20 22 11 16 20 11 6 2 11 3 17
43 33 37 41 45 48 47 51 56 52 52 48 55 52 42 44 46 38 44 29 30 30 31 32 28 21 27 17 14 8 11 15 12 8 14 13 15 8 11 4 9 6 7 9 14 11 4
33 31 32 34 37 41 41 40 39 39 43 52 50 52 57 50 44 38 33 28 25 26 28 28 26 12 28 19 9 13 13 11 12 15 13 17 6 2 4 7 8 8 7 6 10 12 6
33 35 32 32 36 40 40 39 38 37 36 37 41 45 46 44 41 40 29 19 15 18 32 33 11 15 11 15 8 17 14 18 21 13 9 8 6 16 20 18 15 13 17 17 12 12 12
38 36 38 35 28 28 32 34 36 36 35 33 33 37 39 37 39 37 28 25 16 9 21 38 52 64 57 46 32 43 22 16 21 13 7 4 12 27 18 20 16 20 26 23 11 7 11
44 42 40 34 38 31 25 28 25 31 31 28 29 33 31 32 33 39 40 34 16 6 13 30 64 55 67 55 52 62 42 36 13 13 12 15 17 11 18 22 23 24 20 9 6 8 8
51 49 46 39 36 36 30 27 28 23 27 25 24 28 28 28 32 41 41 34 15 4 7 13 14 20 33 26 14 35 43 41 14 26 8 15 28 32 30 19 14 9 7 0 6 10 6
59 55 50 44 39 34 39 37 32 32 26 23 22 27 32 33 22 46 43 32 20 11 6 9 12 12 13 27 13 5 34 45 28 11 12 16 6 2 6 9 4 7 3 5 3 5 8
62 57 54 52 45 39 38 38 37 35 34 30 25 32 38 35 35 20 35 44 29 8 18 7 9 12 13 12 7 14 10 10 11 8 9 18 12 8 11 7 8 9 7 11 7 5 8
59 66 59 54 52 45 39 41 45 38 36 37 31 31 36 38 35 37 37 42 7 11 8 11 9 11 7 11 7 8 11 9 10 7 6 8 11 20 15 9 8 7 10 6 7 3 11
64 61 64 61 55 52 47 38 39 44 38 35 35 35 38 37 38 43 53 6 13 15 15 8 9 10 13 13 12 17 12 9 10 6 3 6 10 5 3 6 15 10 15 10 11 6 9
74 68 62 60 60 55 49 43 40 43 43 34 34 39 48 43 47 55 48 11 16 12 10 7 5 7 9 12 11 11 18 16 17 18 15 9 9 3 9 5 8 2 3 8 2 1 5
73 79 70 60 59 58 53 50 44 42 42 38 35 36 47 50 44 65 13 19 11 9 10 8 5 14 20 15 15 17 18 13 12 17 19 7 4 5 3 7 6 9 9 3 4 7 15
78 76 77 69 58 52 55 53 48 47 45 40 36 22 29 48 45 34 11 12 20 27 18 2 3 9 5 10 15 12 19 4 13 7 17 8 7 6 5 6 7 3 2 2 6 8 9
83 77 77 74 67 60 49 51 52 46 47 42 33 8 30 59 18 8 12 17 17 17 18 14 7 7 11 7 12 15 18 2 21 25 16 5 8 5 12 9 7 6 8 11 9 12 8
74 77 75 81 75 66 59 51 54 52 53 51 18 20 38 57 13 14 7 26 11 5 25 7 8 12 12 6 6 5 9 9 15 8 16 12 3 4 13 9 7 7 1 4 5 3 13
79 77 75 70 68 64 61 56 50 47 60 60 23 7 14 26 32 32 21 23 26 24 25 13 5 9 5 8 7 5 4 8 10 10 15 14 7 13 14 8 5 6 9 10 7 4 7
81 82 81 75 73 70 69 66 61 53 63 66 29 13 21 17 21 31 21 11 31 24 28 14 12 17 12 7 9 7 5 4 12 9 8 9 10 6 6 8 8 11 22 26 17 24 12
79 81 80 79 75 72 71 72 70 66 66 69 23 13 20 15 44 33 25 28 31 27 15 13 26 15 17 15 19 17 18 7 10 3 7 3 5 6 8 14 16 24 35 30 31 22 12
83 83 82 79 79 74 76 79 77 76 80 46 66 26 43 25 23 24 35 52 33 11 20 50 19 10 18 18 15 24 19 29 21 17 10 11 9 6 9 8 15 15 21 21 8 14 15
92 91 89 85 85 83 79 77 76 82 93 71 65 36 14 8 24 40 45 43 27 27 20 11 41 14 18 51 43 27 28 18 30 11 20 12 11 6 5 6 8 11 6 7 12 5 8
104 104 102 96 91 88 87 84 80 90 93 97 74 53 22 6 31 23 30 33 37 39 11 17 13 23 56 18 8 8 8 7 6 12 12 11 9 5 5 6 12 6 7 8 8 9 16
110 108 105 101 98 97 94 88 82 90 95 98 86 66 30 9 22 39 29 28 18 21 8 4 9 46 28 6 7 10 8 8 8 5 15 11 8 9 6 7 8 8 4 12 5 9 27
123 121 116 112 105 99 97 93 87 87 96 99 89 107 30 11 22 53 18 30 28 21 8 10 19 8 7 5 5 6 8 15 11 12 10 9 5 20 11 7 13 6 13 15 8 9 38
134 138 124 118 118 110 101 99 89 84 94 100 98 85 83 7 17 28 35 23 33 44 11 25 14 7 8 7 8 8 7 9 5 9 12 16 14 9 9 8 20 12 11 11 6 21 47
120 119 125 133 123 118 110 105 97 92 94 99 74 73 69 46 18 13 18 31 32 59 47 54 16 18 17 7 7 6 4 4 11 7 5 9 13 9 14 11 3 6 6 10 14 38 42
Wind_Direction_850mb
234 236 238 235 242 248 255 259 259 253 256 260 261 261 263 268 277 283 284 289 292 298 305 316 318 323 335 319 304 316 316 324 329 347 19 349 341 348 297 305 317 205 260 313 316 312 304
249 252 249 245 245 248 246 246 259 255 248 252 254 257 256 262 260 285 277 295 293 297 297 307 312 318 320 298 289 285 307 327 327 292 235 314 308 327 287 297 321 314 319 318 312 300 303
260 259 258 257 260 259 255 258 262 258 252 248 241 248 238 250 263 281 263 276 292 281 287 289 299 306 303 284 278 278 288 313 309 274 285 280 323 338 320 316 326 315 312 332 286 287 292
250 254 253 254 254 255 254 254 261 259 256 249 246 234 236 255 272 280 270 275 280 270 274 280 289 298 281 282 271 245 251 322 296 273 254 272 302 308 286 301 335 327 310 262 291 316 278
245 242 245 243 242 245 251 252 252 258 250 243 251 252 257 257 265 270 252 257 262 265 268 272 284 280 273 265 235 162 231 305 263 243 248 296 285 274 293 35 347 278 253 239 304 320 321
254 233 245 243 241 244 247 248 247 245 244 244 242 246 253 249 251 250 241 244 253 261 262 272 251 281 253 233 215 241 238 246 265 277 259 245 240 253 21 112 231 243 247 294 272 299 31
240 242 236 239 244 244 247 245 242 242 244 242 238 236 237 237 234 242 243 231 235 262 235 224 233 223 160 187 177 237 266 243 235 252 196 208 124 228 226 215 231 276 279 269 254 266 339
245 240 240 245 240 251 244 241 230 231 236 240 241 231 231 227 225 228 225 213 236 253 286 254 249 253 251 252 270 266 252 214 196 219 174 318 230 241 236 250 237 249 262 265 256 283 316
244 241 242 244 235 236 245 236 230 228 233 233 231 221 217 218 209 220 227 228 231 283 275 264 250 245 251 245 242 252 225 226 184 215 225 202 237 275 228 253 256 263 250 267 281 312 319
238 238 245 247 243 233 237 231 230 226 225 228 225 218 206 207 203 215 218 198 191 58 298 265 223 243 206 199 230 243 228 215 196 230 199 247 244 232 255 250 223 259 274 133 48 45 290
241 242 238 240 246 233 232 229 221 223 229 227 216 205 210 209 196 197 210 204 202 177 292 227 170 135 172 164 139 158 218 215 214 187 156 233 315 4 267 237 123 178 108 70 74 64 314
244 243 240 237 233 237 235 225 220 219 219 220 218 195 206 203 199 195 192 187 168 79 244 267 143 159 125 167 153 127 138 149 160 188 247 250 256 278 228 281 201 164 87 32 40 113 263
245 242 242 235 233 229 231 231 222 218 217 215 206 202 204 210 195 181 182 159 128 201 283 194 182 168 152 163 152 144 151 155 161 137 262 344 257 261 236 256 213 123 75 352 321 358 234
241 239 240 235 235 232 228 228 225 216 214 215 204 193 205 213 201 199 181 139 206 201 234 9 128 128 181 161 212 178 142 187 255 129 78 181 315 229 297 184 197 190 156 167 232 228 271
239 236 237 235 233 231 227 226 219 218 211 209 201 194 216 205 208 189 163 209 212 187 182 281 144 163 238 216 167 147 180 191 200 170 180 194 250 267 94 107 111 189 136 195 182 136 261
241 234 233 231 227 231 231 225 223 214 209 202 199 192 209 206 209 184 193 221 235 207 326 27 278 201 187 208 180 176 176 200 208 190 170 221 281 255 36 90 24 149 169 60 358 278 262
242 237 230 226 230 228 227 223 218 214 206 197 190 190 210 205 203 179 195 231 244 248 277 310 318 303 276 184 203 200 194 197 152 122 134 135 140 261 57 146 179 10 283 188 190 179 238
239 234 231 227 226 225 225 216 214 211 204 197 184 191 185 191 153 180 190 204 228 253 233 247 287 206 252 296 213 200 199 149 167 148 144 142 142 209 229 276 286 202 230 201 207 241 238
242 235 223 217 218 220 221 220 214 212 196 193 184 178 174 184 183 204 236 229 232 270 225 242 229 195 215 201 325 164 98 9 118 98 153 175 141 17 335 356 29 79 204 183 223 137 214
238 237 232 232 232 223 220 217 218 212 200 196 183 145 188 189 214 208 195 215 221 226 254 256 260 227 250 200 190 164 137 26 64 88 120 101 147 171 226 205 155 250 245 263 197 194 243
231 228 231 230 226 225 223 222 219 209 200 197 205 191 176 186 210 205 188 227 213 225 213 226 220 222 196 205 170 131 41 58 52 120 62 105 193 148 246 239 249 233 255 266 243 245 220
226 225 224 224 225 226 226 222 218 206 205 201 178 176 170 201 201 200 200 214 232 212 221 200 228 223 221 199 196 179 159 173 184 162 117 41 208 95 311 263 250 263 260 251 244 246 240
228 226 224 225 223 224 223 219 216 208 203 203 211 220 189 176 184 192 207 217 218 181 222 230 237 206 216 209 172 114 143 164 163 148 153 142 123 81 270 307 299 279 243 224 219 219 220
232 229 229 229 226 225 220 214 214 208 205 206 205 201 190 197 177 200 210 216 217 205 222 281 219 189 201 127 111 90 78 119 158 175 148 134 123 131 250 351 252 244 228 239 219 232 146
236 233 231 230 227 223 220 220 217 208 204 212 209 209 211 188 201 191 209 203 204 228 230 224 230 208 156 125 83 70 359 25 213 194 167 137 128 172 175 217 278 251 221 186 183 250 160
235 231 227 228 226 223 218 217 214 206 203 211 214 207 215 230 205 189 191 181 185 211 189 182 105 156 173 102 99 151 185 180 220 250 180 127 141 142 170 239 252 243 199 157 122 286 158
236 233 228 223 219 218 212 209 210 205 204 207 215 213 224 210 227 188 173 196 181 172 166 145 156 251 24 80 121 158 212 182 201 187 165 167 193 203 212 241 281 197 151 141 93 249 159
230 228 223 221 219 215 208 206 205 203 200 203 214 214 216 270 232 227 202 182 185 184 163 163 126 180 108 164 147 193 185 212 192 171 169 180 177 190 191 197 257 139 125 175 180 138 160
224 217 216 218 213 210 208 206 207 202 200 201 205 210 220 229 226 244 200 212 211 211 184 172 174 160 156 133 181 164 206 153 171 214 179 196 189 183 186 213 182 200 218 183 174 163 170